| time (UTC) | temp F | wind direction | speed MPH | gust MPH | rain 1hr in | rain 24hr in | rain mn in | humidity % | barometer mb |
| 20260505041536 | 43 | 80 | 4.0 | 8.0 | 0.00 | 0.00 | 0.00 | 47 | 1017.1 |
| 20260505040052 | 43 | 87 | 3.0 | 8.0 | 0.00 | 0.00 | 0.00 | 46 | 1016.9 |
| 20260505034544 | 44 | 76 | 2.0 | 8.0 | 0.00 | 0.00 | 0.00 | 45 | 1017.0 |
| 20260505033037 | 44 | 55 | 3.0 | 6.0 | 0.00 | 0.00 | 0.00 | 44 | 1016.8 |
| 20260505031550 | 44 | 44 | 4.0 | 9.0 | 0.00 | 0.00 | 0.00 | 42 | 1016.5 |
| 20260505030036 | 45 | 43 | 4.0 | 11.0 | 0.00 | 0.00 | 0.00 | 41 | 1016.4 |
| 20260505024542 | 45 | 46 | 5.0 | 12.0 | 0.00 | 0.00 | 0.00 | 40 | 1016.3 |
| 20260505023042 | 46 | 47 | 6.0 | 11.0 | 0.00 | 0.00 | 0.00 | 36 | 1016.0 |
| 20260505021538 | 48 | 46 | 8.0 | 17.0 | 0.00 | 0.00 | 0.00 | 33 | 1015.9 |
| 20260505020040 | 49 | 24 | 10.0 | 20.0 | 0.00 | 0.00 | 0.00 | 31 | 1015.9 |
| 20260505014542 | 50 | 16 | 13.0 | 22.0 | 0.00 | 0.00 | 0.00 | 27 | 1015.6 |
| 20260505013035 | 52 | 13 | 15.0 | 27.0 | 0.00 | 0.00 | 0.00 | 25 | 1015.7 |
| 20260505011545 | 53 | 44 | 14.0 | 24.0 | 0.00 | 0.00 | 0.00 | 24 | 1015.6 |
| 20260505010048 | 54 | 336 | 16.0 | 24.0 | 0.00 | 0.00 | 0.00 | 22 | 1015.6 |
| 20260505004536 | 54 | 30 | 14.0 | 29.0 | 0.00 | 0.00 | 0.00 | 22 | 1015.4 |
| 20260505003035 | 55 | 323 | 19.0 | 28.0 | 0.00 | 0.00 | 0.00 | 22 | 1015.6 |
| 20260505001535 | 54 | 355 | 17.0 | 24.0 | 0.00 | 0.00 | 0.00 | 23 | 1015.6 |
| 20260505000049 | 54 | 13 | 11.0 | 20.0 | 0.00 | 0.00 | 0.00 | 24 | 1015.6 |
| 20260504234538 | 55 | 355 | 12.0 | 21.0 | 0.00 | 0.00 | 0.00 | 24 | 1015.6 |
| 20260504233037 | 55 | 355 | 15.0 | 23.0 | 0.00 | 0.00 | 0.00 | 25 | 1015.5 |
| 20260504231538 | 55 | 5 | 15.0 | 22.0 | 0.00 | 0.00 | 0.00 | 24 | 1015.4 |
| 20260504230035 | 55 | 24 | 14.0 | 26.0 | 0.00 | 0.00 | 0.00 | 24 | 1015.7 |
| 20260504224541 | 54 | 355 | 13.0 | 23.0 | 0.00 | 0.00 | 0.00 | 28 | 1015.8 |
| 20260504223038 | 54 | 355 | 17.0 | 25.0 | 0.00 | 0.00 | 0.00 | 28 | 1015.7 |
| 20260504221539 | 54 | 9 | 12.0 | 21.0 | 0.00 | 0.00 | 0.00 | 31 | 1015.8 |
| 20260504220046 | 54 | 23 | 15.0 | 27.0 | 0.00 | 0.00 | 0.00 | 33 | 1015.7 |
| 20260504214537 | 52 | 348 | 15.0 | 22.0 | 0.00 | 0.00 | 0.00 | 33 | 1015.9 |
| 20260504213058 | 53 | 341 | 14.0 | 29.0 | 0.00 | 0.00 | 0.00 | 33 | 1016.0 |
| 20260504211542 | 53 | 5 | 15.0 | 31.0 | 0.00 | 0.00 | 0.00 | 33 | 1016.2 |
| 20260504210037 | 53 | 11 | 19.0 | 26.0 | 0.00 | 0.00 | 0.00 | 34 | 1016.3 |
| 20260504204541 | 53 | 334 | 17.0 | 27.0 | 0.00 | 0.00 | 0.00 | 33 | 1016.2 |
| 20260504203035 | 53 | 352 | 18.0 | 30.0 | 0.00 | 0.00 | 0.00 | 34 | 1016.2 |
| 20260504201542 | 54 | 348 | 17.0 | 31.0 | 0.00 | 0.00 | 0.00 | 34 | 1016.1 |
| 20260504200041 | 54 | 15 | 18.0 | 30.0 | 0.00 | 0.00 | 0.00 | 33 | 1016.1 |
| 20260504194537 | 54 | 336 | 20.0 | 31.0 | 0.00 | 0.00 | 0.00 | 33 | 1016.1 |
| 20260504193050 | 54 | 355 | 21.0 | 29.0 | 0.00 | 0.00 | 0.00 | 33 | 1016.0 |
| 20260504191536 | 53 | 355 | 18.0 | 28.0 | 0.00 | 0.00 | 0.00 | 35 | 1016.1 |
| 20260504190040 | 53 | 340 | 17.0 | 27.0 | 0.00 | 0.00 | 0.00 | 37 | 1016.2 |
| 20260504184543 | 53 | 360 | 17.0 | 25.0 | 0.00 | 0.00 | 0.00 | 37 | 1016.2 |
| 20260504183044 | 53 | 14 | 15.0 | 25.0 | 0.00 | 0.00 | 0.00 | 36 | 1016.0 |
| 20260504181537 | 53 | 323 | 17.0 | 26.0 | 0.00 | 0.00 | 0.00 | 37 | 1016.2 |
| 20260504180054 | 52 | 337 | 17.0 | 26.0 | 0.00 | 0.00 | 0.00 | 37 | 1016.4 |
| 20260504174536 | 53 | 343 | 15.0 | 25.0 | 0.00 | 0.00 | 0.00 | 39 | 1016.4 |
| 20260504173038 | 52 | 349 | 15.0 | 23.0 | 0.00 | 0.00 | 0.00 | 39 | 1016.5 |
| 20260504171548 | 51 | 350 | 12.0 | 24.0 | 0.00 | 0.00 | 0.00 | 39 | 1016.5 |
| 20260504081537 | 46 | 5 | 14.0 | 25.0 | 0.00 | 0.00 | 0.00 | 58 | 1015.2 |